Вернуться в каталог

FENGYUN 1C DEB

АктивенSSO
NORAD 31667·DEBRIS·🇨🇳 China

Запущен May 10, 1999 с Taiyuan Satellite Launch Center

Loading…

Ближайшие Пролёты (ближайшие 24 часа)

TLE

СвежийSource: Space-Track

Эпоха: Sep 13, 2026, 10:09 UTC

1 31667U 99025CBZ 26256.42325939  .00000303  00000-0  15119-3 0  9992
2 31667  99.0526 121.9604 0051506  21.0745 339.2539 14.23780359599015

Отслеживайте FENGYUN 1C DEB в реальном времени с AllMySat

Download on the App Store